Weather History for LTBA - April, 2013

Change the Weather History Date:

Monday, April 8, 2013

  Actual Average (WUND) Record (WUND)
Temperature  
Mean Temperature 48 °F -  
Max Temperature 52 °F 62 °F - (-1)
Min Temperature 44 °F 47 °F - (-1)
Degree Days  
Heating Degree Days 17    
Moisture  
Dew Point 45 °F    
Average Humidity 87    
Maximum Humidity 100    
Minimum Humidity 70    
Precipitation  
Precipitation 0.01 in - - ()
Sea Level Pressure  
Sea Level Pressure 29.71 in    
Wind  
Wind Speed 14 mph ()    
Max Wind Speed 23 mph    
Max Gust Speed -    
Visibility 4.0 miles    
Events Rain , Thunderstorm    
Averages and records for this station are not official NWS values.
T = Trace of Precipitation, MM = Missing Value Source: Averaged Metar Reports

Daily Weather History Graph

Daily Weather History Graph

Search for Another Location

Airport or City:

Trip Planner

Search our weather history database for the weather conditions in past years. The results will help you decide how hot, cold, wet, or windy it might be!

Date:

Astronomy

Apr. 08, 2013 Rise Set
Actual Time 6:36 AM EEST 7:37 PM EEST
Civil Twilight 6:08 AM EEST 8:05 PM EEST
Nautical Twilight 5:35 AM EEST 8:38 PM EEST
Astronomical Twilight 5:00 AM EEST 9:13 PM EEST
Moon 5:17 AM EEST (4/8) 5:50 PM EEST (4/8)
Length of Visible Light 13h 56m
Length of Day
13h 00m
Waning Crescent, 4% of the Moon is Illuminated
Apr 8
Waning Crescent
Apr 10
New
Apr 18
First Quarter
Apr 25
Full
May 2
Last Quarter

Hourly Weather History & Observations

Time (EEST) Temp. Windchill Dew Point Humidity Pressure Visibility Wind Dir Wind Speed Gust Speed Precip Events Conditions
12:20 AM 51.8 °F - 46.4 °F 82% 29.56 in 3.7 mi North 17.3 mph - N/A Rain Light Rain Showers
12:50 AM 50.0 °F - 46.4 °F 87% 29.59 in 3.7 mi NNW 16.1 mph - N/A Rain Light Rain Showers
1:01 AM 50.0 °F - 48.2 °F 94% 29.59 in 3.1 mi North 18.4 mph - N/A Rain , Thunderstorm Light Thunderstorms and Rain
1:20 AM 50.0 °F - 46.4 °F 87% 29.56 in 3.1 mi North 18.4 mph - N/A Rain , Thunderstorm Light Thunderstorms and Rain
1:41 AM 50.0 °F - 46.4 °F 87% 29.56 in 1.9 mi North 18.4 mph - N/A Rain , Thunderstorm Light Thunderstorms and Rain
1:50 AM 50.0 °F - 48.2 °F 94% 29.56 in - North 17.3 mph - N/A Rain , Thunderstorm Light Thunderstorms and Rain
2:20 AM 50.0 °F - 48.2 °F 94% 29.56 in 2.8 mi North 18.4 mph - N/A Rain , Thunderstorm Light Thunderstorms and Rain
2:50 AM 50.0 °F - 48.2 °F 94% 29.59 in 2.8 mi North 15.0 mph - N/A Rain , Thunderstorm Light Thunderstorms and Rain
3:00 AM 49 °F - 48 °F 94% 29.59 in 3 mi North 15.0 mph - - Rain , Thunderstorm Thunderstorms and Rain
3:20 AM 48.2 °F - 48.2 °F 100% 29.59 in 2.8 mi NNE 13.8 mph - N/A Rain , Thunderstorm Light Thunderstorms and Rain
3:50 AM 48.2 °F - 48.2 °F 100% 29.56 in 2.8 mi NNE 13.8 mph - N/A Rain , Thunderstorm Light Thunderstorms and Rain
4:20 AM 48.2 °F - 48.2 °F 100% 29.59 in 3.7 mi NNW 10.4 mph - N/A Rain Light Rain Showers
4:50 AM 50.0 °F - 48.2 °F 94% 29.59 in 3.7 mi North 8.1 mph - N/A Rain Light Rain Showers
5:20 AM 48.2 °F - 48.2 °F 100% 29.56 in 3.7 mi North 16.1 mph - N/A Rain Light Rain Showers
6:20 AM 48.2 °F - 48.2 °F 100% 29.59 in 3.7 mi North 10.4 mph - N/A Rain Light Rain Showers
6:50 AM 50.0 °F - 48.2 °F 94% 29.62 in 3.7 mi North 10.4 mph - N/A Rain Light Rain Showers
7:20 AM 50.0 °F - 46.4 °F 87% 29.62 in 3.7 mi NNE 11.5 mph - N/A Rain Light Rain Showers
7:50 AM 50.0 °F - 46.4 °F 87% 29.62 in 3.7 mi NNE 11.5 mph - N/A   Mostly Cloudy
8:20 AM 50.0 °F - 48.2 °F 94% 29.62 in 3.7 mi North 11.5 mph - N/A   Mostly Cloudy
8:50 AM 50.0 °F - 46.4 °F 87% 29.62 in 3.7 mi NNE 12.7 mph - N/A   Mostly Cloudy
9:00 AM 50 °F - 48 °F 89% 29.64 in 4 mi NNE 12.7 mph - -   Mist
9:20 AM 51.8 °F - 46.4 °F 82% 29.62 in 2.5 mi North 9.2 mph - N/A   Mostly Cloudy
9:50 AM 51.8 °F - 44.6 °F 76% 29.65 in 2.5 mi Variable 9.2 mph - N/A   Mostly Cloudy
10:20 AM 50.0 °F - 46.4 °F 87% 29.65 in 3.7 mi North 10.4 mph - N/A Rain Light Rain Showers
10:50 AM 50.0 °F - 46.4 °F 87% 29.68 in 3.7 mi North 12.7 mph - N/A Rain Light Rain Showers
11:20 AM 50.0 °F - 46.4 °F 87% 29.68 in 3.7 mi North 15.0 mph - N/A Rain Light Rain Showers
11:50 AM 48.2 °F - 48.2 °F 100% 29.68 in 3.7 mi North 16.1 mph - N/A Rain Light Rain Showers
12:20 PM 48.2 °F - 46.4 °F 93% 29.68 in 4.3 mi North 17.3 mph - N/A Rain Light Rain Showers
12:50 PM 48.2 °F - 48.2 °F 100% 29.68 in 5.0 mi North 18.4 mph - N/A Rain Light Rain Showers
1:20 PM 48.2 °F - 46.4 °F 93% 29.71 in 6.2 mi North 20.7 mph - N/A Rain Light Rain Showers
1:50 PM 50.0 °F - 44.6 °F 82% 29.71 in 5.0 mi North 17.3 mph - N/A Rain Light Rain Showers
2:20 PM 48.2 °F - 44.6 °F 87% 29.74 in 3.7 mi North 21.9 mph - N/A   Mostly Cloudy
2:50 PM 48.2 °F - 44.6 °F 87% 29.74 in 2.5 mi North 21.9 mph - N/A Rain Light Rain Showers
3:00 PM 47 °F - 45 °F 90% 29.75 in 2 mi North 21.9 mph - - Rain Light Rain Showers
3:20 PM 46.4 °F 38.3 °F 44.6 °F 93% 29.74 in 2.5 mi North 23.0 mph - N/A Rain Light Rain Showers
3:50 PM 48.2 °F - 42.8 °F 82% 29.77 in 4.3 mi North 18.4 mph - N/A   Mostly Cloudy
4:20 PM 46.4 °F 38.7 °F 41.0 °F 81% 29.77 in 6.2 mi North 20.7 mph - N/A   Mostly Cloudy
4:50 PM 46.4 °F 39.0 °F 41.0 °F 81% 29.80 in 3.7 mi North 19.6 mph - N/A   Mostly Cloudy
5:20 PM 46.4 °F 38.7 °F 41.0 °F 81% 29.80 in 3.7 mi North 20.7 mph - N/A   Mostly Cloudy
5:50 PM 46.4 °F 39.0 °F 41.0 °F 81% 29.80 in 3.7 mi North 19.6 mph - N/A   Mostly Cloudy
6:20 PM 46.4 °F 39.8 °F 41.0 °F 81% 29.83 in 3.7 mi North 16.1 mph - N/A   Mostly Cloudy
6:50 PM 46.4 °F 39.5 °F 41.0 °F 81% 29.83 in 3.7 mi North 17.3 mph - N/A   Mostly Cloudy
7:20 PM 46.4 °F 40.1 °F 39.2 °F 76% 29.86 in 6.2 mi North 15.0 mph - N/A   Mostly Cloudy
7:50 PM 46.4 °F 40.1 °F 39.2 °F 76% 29.86 in 6.2 mi North 15.0 mph - N/A   Mostly Cloudy
8:20 PM 46.4 °F 40.7 °F 41.0 °F 81% 29.89 in 6.2 mi North 12.7 mph - N/A   Mostly Cloudy
8:50 PM 46.4 °F 41.1 °F 41.0 °F 81% 29.89 in 3.7 mi North 11.5 mph - N/A Rain Light Rain Showers
9:00 PM 47 °F - 40 °F 70% 29.91 in 4 mi North 11.5 mph - - Rain Light Rain Showers
9:20 PM 46.4 °F 41.1 °F 41.0 °F 81% 29.92 in 3.7 mi North 11.5 mph - N/A Rain Light Rain Showers
9:50 PM 46.4 °F 41.1 °F 39.2 °F 76% 29.92 in 6.2 mi North 11.5 mph - N/A   Mostly Cloudy
10:20 PM 44.6 °F 39.2 °F 39.2 °F 81% 29.92 in 6.2 mi North 10.4 mph - N/A   Mostly Cloudy
10:50 PM 46.4 °F 41.1 °F 39.2 °F 76% 29.92 in 6.2 mi North 11.5 mph - N/A   Mostly Cloudy
11:20 PM 46.4 °F 40.7 °F 39.2 °F 76% 29.92 in 6.2 mi North 12.7 mph - N/A   Mostly Cloudy
11:50 PM 46.4 °F 41.1 °F 39.2 °F 76% 29.95 in 6.2 mi North 11.5 mph - N/A   Mostly Cloudy